Time,TemperatureF,DewpointF,PressureIn,WindDirection,WindDirectionDegrees,WindSpeedMPH,WindSpeedGustMPH,Humidity,HourlyPrecipIn,Conditions,Clouds,dailyrainin,SoftwareType,DateUTC
2013-03-08 00:02:00,28.0,-99.9,-100.00,South,169,11.0,-999.0,0,-99.99,,,-99.99,,2013-03-08 06:02:00,
2013-03-08 00:11:00,28.0,-99.9,-100.00,South,178,8.0,-999.0,0,-99.99,,,-99.99,,2013-03-08 06:11:00,
2013-03-08 00:22:00,28.0,-99.9,-100.00,South,183,9.0,-999.0,0,-99.99,,,-99.99,,2013-03-08 06:22:00,
2013-03-08 00:32:00,28.0,-99.9,-100.00,South,174,12.0,-999.0,0,-99.99,,,-99.99,,2013-03-08 06:32:00,
2013-03-08 00:42:00,28.0,-99.9,-100.00,South,174,12.0,-999.0,0,-99.99,,,-99.99,,2013-03-08 06:42:00,
2013-03-08 00:52:00,28.0,-99.9,-100.00,South,173,12.0,-999.0,0,-99.99,,,-99.99,,2013-03-08 06:52:00,
2013-03-08 01:01:00,28.0,-99.9,-100.00,South,187,6.0,-999.0,0,-99.99,,,-99.99,,2013-03-08 07:01:00,
2013-03-08 01:11:00,28.0,-99.9,-100.00,SSE,168,12.0,-999.0,0,-99.99,,,-99.99,,2013-03-08 07:11:00,
2013-03-08 01:22:00,27.0,-99.9,-100.00,South,175,12.0,-999.0,0,-99.99,,,-99.99,,2013-03-08 07:22:00,
2013-03-08 01:32:00,27.0,-99.9,-100.00,South,174,12.0,-999.0,0,-99.99,,,-99.99,,2013-03-08 07:32:00,
2013-03-08 01:42:00,27.0,-99.9,-100.00,South,174,12.0,-999.0,0,-99.99,,,-99.99,,2013-03-08 07:42:00,
2013-03-08 01:52:00,27.0,-99.9,-100.00,South,176,11.0,-999.0,0,-99.99,,,-99.99,,2013-03-08 07:52:00,
2013-03-08 02:02:00,27.0,-99.9,-100.00,South,176,11.0,-999.0,0,-99.99,,,-99.99,,2013-03-08 08:02:00,
2013-03-08 02:11:00,27.0,-99.9,-100.00,South,176,10.0,-999.0,0,-99.99,,,-99.99,,2013-03-08 08:11:00,
2013-03-08 02:22:00,27.0,-99.9,-100.00,SSE,164,8.0,-999.0,0,-99.99,,,-99.99,,2013-03-08 08:22:00,
2013-03-08 02:32:00,27.0,-99.9,-100.00,South,175,8.0,-999.0,0,-99.99,,,-99.99,,2013-03-08 08:32:00,
2013-03-08 02:42:00,27.0,-99.9,-100.00,SSE,164,11.0,-999.0,0,-99.99,,,-99.99,,2013-03-08 08:42:00,
2013-03-08 02:52:00,27.0,-99.9,-100.00,South,177,7.0,-999.0,0,-99.99,,,-99.99,,2013-03-08 08:52:00,
2013-03-08 03:03:00,27.0,-99.9,-100.00,South,169,10.0,-999.0,0,-99.99,,,-99.99,,2013-03-08 09:03:00,
2013-03-08 03:11:00,27.0,-99.9,-100.00,South,175,10.0,-999.0,0,-99.99,,,-99.99,,2013-03-08 09:11:00,
2013-03-08 03:22:00,27.0,-99.9,-100.00,South,171,10.0,-999.0,0,-99.99,,,-99.99,,2013-03-08 09:22:00,
2013-03-08 03:32:00,27.0,-99.9,-100.00,South,182,9.0,-999.0,0,-99.99,,,-99.99,,2013-03-08 09:32:00,
2013-03-08 03:42:00,27.0,-99.9,-100.00,South,177,7.0,-999.0,0,-99.99,,,-99.99,,2013-03-08 09:42:00,
2013-03-08 03:52:00,26.0,-99.9,-100.00,South,179,8.0,-999.0,0,-99.99,,,-99.99,,2013-03-08 09:52:00,
2013-03-08 04:01:00,26.0,-99.9,-100.00,South,174,7.0,-999.0,0,-99.99,,,-99.99,,2013-03-08 10:01:00,
2013-03-08 04:11:00,26.0,-99.9,-100.00,SSE,168,6.0,-999.0,0,-99.99,,,-99.99,,2013-03-08 10:11:00,
2013-03-08 04:22:00,26.0,-99.9,-100.00,South,186,7.0,-999.0,0,-99.99,,,-99.99,,2013-03-08 10:22:00,
2013-03-08 04:32:00,26.0,-99.9,-100.00,South,180,8.0,-999.0,0,-99.99,,,-99.99,,2013-03-08 10:32:00,
2013-03-08 04:42:00,26.0,-99.9,-100.00,South,177,8.0,-999.0,0,-99.99,,,-99.99,,2013-03-08 10:42:00,
2013-03-08 04:52:00,25.0,-99.9,-100.00,South,169,9.0,-999.0,0,-99.99,,,-99.99,,2013-03-08 10:52:00,
2013-03-08 05:01:00,25.0,-99.9,-100.00,South,169,9.0,-999.0,0,-99.99,,,-99.99,,2013-03-08 11:01:00,
2013-03-08 05:11:00,24.0,-99.9,-100.00,SSE,166,3.0,-999.0,0,-99.99,,,-99.99,,2013-03-08 11:11:00,
2013-03-08 05:22:00,25.0,-99.9,-100.00,South,172,5.0,-999.0,0,-99.99,,,-99.99,,2013-03-08 11:22:00,
2013-03-08 05:32:00,24.0,-99.9,-100.00,SSE,162,5.0,-999.0,0,-99.99,,,-99.99,,2013-03-08 11:32:00,
2013-03-08 05:42:00,24.0,-99.9,-100.00,SE,142,5.0,-999.0,0,-99.99,,,-99.99,,2013-03-08 11:42:00,
2013-03-08 05:52:00,25.0,-99.9,-100.00,SE,145,4.0,-999.0,0,-99.99,,,-99.99,,2013-03-08 11:52:00,
2013-03-08 06:02:00,24.0,-99.9,-100.00,South,175,5.0,-999.0,0,-99.99,,,-99.99,,2013-03-08 12:02:00,
2013-03-08 06:12:00,24.0,-99.9,-100.00,SSE,166,6.0,-999.0,0,-99.99,,,-99.99,,2013-03-08 12:12:00,
2013-03-08 06:23:00,23.0,-99.9,-100.00,South,172,5.0,-999.0,0,-99.99,,,-99.99,,2013-03-08 12:23:00,
2013-03-08 06:32:00,23.0,-99.9,-100.00,SSE,162,6.0,-999.0,0,-99.99,,,-99.99,,2013-03-08 12:32:00,
2013-03-08 06:43:00,23.0,-99.9,-100.00,South,180,4.0,-999.0,0,-99.99,,,-99.99,,2013-03-08 12:43:00,
2013-03-08 06:53:00,24.0,-99.9,-100.00,SSE,167,6.0,-999.0,0,-99.99,,,-99.99,,2013-03-08 12:53:00,
2013-03-08 07:02:00,24.0,-99.9,-100.00,South,174,3.0,-999.0,0,-99.99,,,-99.99,,2013-03-08 13:02:00,
2013-03-08 07:12:00,24.0,-99.9,-100.00,SE,139,1.0,-999.0,0,-99.99,,,-99.99,,2013-03-08 13:12:00,
2013-03-08 07:22:00,24.0,-99.9,-100.00,South,177,4.0,-999.0,0,-99.99,,,-99.99,,2013-03-08 13:22:00,
2013-03-08 07:33:00,24.0,-99.9,-100.00,SSE,153,5.0,-999.0,0,-99.99,,,-99.99,,2013-03-08 13:33:00,
2013-03-08 07:42:00,24.0,-99.9,-100.00,ESE,116,4.0,-999.0,0,-99.99,,,-99.99,,2013-03-08 13:42:00,
2013-03-08 07:52:00,24.0,-99.9,-100.00,SE,126,5.0,-999.0,0,-99.99,,,-99.99,,2013-03-08 13:52:00,
2013-03-08 08:03:00,23.0,-99.9,-100.00,East,101,2.0,-999.0,0,-99.99,,,-99.99,,2013-03-08 14:03:00,
2013-03-08 08:12:00,24.0,-99.9,-100.00,East,101,3.0,-999.0,0,-99.99,,,-99.99,,2013-03-08 14:12:00,
2013-03-08 08:22:00,24.0,-99.9,-100.00,NNE,33,2.0,-999.0,0,-99.99,,,-99.99,,2013-03-08 14:22:00,
2013-03-08 08:33:00,24.0,-99.9,-100.00,ESE,108,3.0,-999.0,0,-99.99,,,-99.99,,2013-03-08 14:33:00,
2013-03-08 08:42:00,24.0,-99.9,-100.00,NNE,28,2.0,-999.0,0,-99.99,,,-99.99,,2013-03-08 14:42:00,
2013-03-08 08:53:00,25.0,-99.9,-100.00,North,0,0.0,-999.0,0,-99.99,,,-99.99,,2013-03-08 14:53:00,
2013-03-08 09:03:00,26.0,-99.9,-100.00,SE,142,4.0,-999.0,0,-99.99,,,-99.99,,2013-03-08 15:03:00,
2013-03-08 09:12:00,27.0,-99.9,-100.00,SE,139,6.0,-999.0,0,-99.99,,,-99.99,,2013-03-08 15:12:00,
2013-03-08 09:22:00,27.0,-99.9,-100.00,SE,131,6.0,-999.0,0,-99.99,,,-99.99,,2013-03-08 15:22:00,
2013-03-08 09:32:00,26.0,-99.9,-100.00,SE,134,5.0,-999.0,0,-99.99,,,-99.99,,2013-03-08 15:32:00,
2013-03-08 09:43:00,27.0,-99.9,-100.00,SSE,152,6.0,-999.0,0,-99.99,,,-99.99,,2013-03-08 15:43:00,
2013-03-08 09:53:00,27.0,-99.9,-100.00,ESE,122,7.0,-999.0,0,-99.99,,,-99.99,,2013-03-08 15:53:00,
2013-03-08 10:02:00,28.0,-99.9,-100.00,SE,128,9.0,-999.0,0,-99.99,,,-99.99,,2013-03-08 16:02:00,
2013-03-08 10:12:00,28.0,-99.9,-100.00,South,176,8.0,-999.0,0,-99.99,,,-99.99,,2013-03-08 16:12:00,
2013-03-08 10:22:00,29.0,-99.9,-100.00,SSE,150,8.0,-999.0,0,-99.99,,,-99.99,,2013-03-08 16:22:00,
2013-03-08 10:32:00,31.0,-99.9,-100.00,SSE,155,6.0,-999.0,0,-99.99,,,-99.99,,2013-03-08 16:32:00,
2013-03-08 10:42:00,31.0,-99.9,-100.00,South,186,10.0,-999.0,0,-99.99,,,-99.99,,2013-03-08 16:42:00,
2013-03-08 10:52:00,31.0,-99.9,-100.00,SSW,194,11.0,-999.0,0,-99.99,,,-99.99,,2013-03-08 16:52:00,
2013-03-08 11:03:00,33.0,-99.9,-100.00,South,173,7.0,-999.0,0,-99.99,,,-99.99,,2013-03-08 17:03:00,
2013-03-08 11:12:00,32.0,-99.9,-100.00,ESE,116,14.0,-999.0,0,-99.99,,,-99.99,,2013-03-08 17:12:00,
2013-03-08 11:22:00,33.0,-99.9,-100.00,SE,129,12.0,-999.0,0,-99.99,,,-99.99,,2013-03-08 17:22:00,
2013-03-08 11:32:00,33.0,-99.9,-100.00,ESE,118,12.0,-999.0,0,-99.99,,,-99.99,,2013-03-08 17:32:00,
2013-03-08 11:42:00,33.0,-99.9,-100.00,ESE,118,13.0,-999.0,0,-99.99,,,-99.99,,2013-03-08 17:42:00,
2013-03-08 11:52:00,34.0,-99.9,-100.00,ESE,123,12.0,-999.0,0,-99.99,,,-99.99,,2013-03-08 17:52:00,
2013-03-08 12:02:00,34.0,-99.9,-100.00,ESE,123,11.0,-999.0,0,-99.99,,,-99.99,,2013-03-08 18:02:00,
2013-03-08 12:12:00,34.0,-99.9,-100.00,ESE,122,12.0,-999.0,0,-99.99,,,-99.99,,2013-03-08 18:12:00,
2013-03-08 12:22:00,35.0,-99.9,-100.00,ESE,116,11.0,-999.0,0,-99.99,,,-99.99,,2013-03-08 18:22:00,
2013-03-08 12:32:00,35.0,-99.9,-100.00,East,101,9.0,-999.0,0,-99.99,,,-99.99,,2013-03-08 18:32:00,
2013-03-08 12:42:00,35.0,-99.9,-100.00,ESE,102,11.0,-999.0,0,-99.99,,,-99.99,,2013-03-08 18:42:00,
2013-03-08 12:52:00,36.0,-99.9,-100.00,East,91,13.0,-999.0,0,-99.99,,,-99.99,,2013-03-08 18:52:00,
2013-03-08 13:02:00,36.0,-99.9,-100.00,East,92,8.0,-999.0,0,-99.99,,,-99.99,,2013-03-08 19:02:00,
2013-03-08 13:12:00,37.0,-99.9,-100.00,ESE,112,10.0,-999.0,0,-99.99,,,-99.99,,2013-03-08 19:12:00,
2013-03-08 13:22:00,36.0,-99.9,-100.00,ESE,110,9.0,-999.0,0,-99.99,,,-99.99,,2013-03-08 19:22:00,
2013-03-08 13:32:00,36.0,-99.9,-100.00,ESE,113,14.0,-999.0,0,-99.99,,,-99.99,,2013-03-08 19:32:00,
2013-03-08 13:42:00,37.0,-99.9,-100.00,ESE,106,13.0,-999.0,0,-99.99,,,-99.99,,2013-03-08 19:42:00,
2013-03-08 13:52:00,37.0,-99.9,-100.00,ESE,114,11.0,-999.0,0,-99.99,,,-99.99,,2013-03-08 19:52:00,
2013-03-08 14:02:00,38.0,-99.9,-100.00,East,96,8.0,-999.0,0,-99.99,,,-99.99,,2013-03-08 20:02:00,
2013-03-08 14:11:00,38.0,-99.9,-100.00,East,99,12.0,-999.0,0,-99.99,,,-99.99,,2013-03-08 20:11:00,
2013-03-08 14:22:00,39.0,-99.9,-100.00,East,95,7.0,-999.0,0,-99.99,,,-99.99,,2013-03-08 20:22:00,
2013-03-08 14:32:00,38.0,-99.9,-100.00,East,99,10.0,-999.0,0,-99.99,,,-99.99,,2013-03-08 20:32:00,
2013-03-08 14:42:00,39.0,-99.9,-100.00,East,96,10.0,-999.0,0,-99.99,,,-99.99,,2013-03-08 20:42:00,
2013-03-08 14:53:00,39.0,-99.9,-100.00,East,97,15.0,-999.0,0,-99.99,,,-99.99,,2013-03-08 20:53:00,
2013-03-08 15:02:00,39.0,-99.9,-100.00,ENE,68,12.0,-999.0,0,-99.99,,,-99.99,,2013-03-08 21:02:00,
2013-03-08 15:12:00,39.0,-99.9,-100.00,East,82,12.0,-999.0,0,-99.99,,,-99.99,,2013-03-08 21:12:00,
2013-03-08 15:22:00,40.0,-99.9,-100.00,ESE,121,8.0,-999.0,0,-99.99,,,-99.99,,2013-03-08 21:22:00,
2013-03-08 15:33:00,40.0,-99.9,-100.00,East,86,12.0,-999.0,0,-99.99,,,-99.99,,2013-03-08 21:33:00,
2013-03-08 15:42:00,40.0,-99.9,-100.00,East,86,12.0,-999.0,0,-99.99,,,-99.99,,2013-03-08 21:42:00,
2013-03-08 15:52:00,40.0,-99.9,-100.00,East,88,12.0,-999.0,0,-99.99,,,-99.99,,2013-03-08 21:52:00,
2013-03-08 16:02:00,40.0,-99.9,-100.00,East,80,10.0,-999.0,0,-99.99,,,-99.99,,2013-03-08 22:02:00,
2013-03-08 16:12:00,40.0,-99.9,-100.00,East,99,9.0,-999.0,0,-99.99,,,-99.99,,2013-03-08 22:12:00,
2013-03-08 16:22:00,40.0,-99.9,-100.00,ESE,102,9.0,-999.0,0,-99.99,,,-99.99,,2013-03-08 22:22:00,
2013-03-08 16:32:00,39.0,-99.9,-100.00,East,91,13.0,-999.0,0,-99.99,,,-99.99,,2013-03-08 22:32:00,
2013-03-08 16:42:00,40.0,-99.9,-100.00,East,92,15.0,-999.0,0,-99.99,,,-99.99,,2013-03-08 22:42:00,
2013-03-08 16:53:00,40.0,-99.9,-100.00,East,93,9.0,-999.0,0,-99.99,,,-99.99,,2013-03-08 22:53:00,
2013-03-08 17:02:00,39.0,-99.9,-100.00,East,94,8.0,-999.0,0,-99.99,,,-99.99,,2013-03-08 23:02:00,
2013-03-08 17:12:00,39.0,-99.9,-100.00,East,98,10.0,-999.0,0,-99.99,,,-99.99,,2013-03-08 23:12:00,
2013-03-08 17:22:00,39.0,-99.9,-100.00,ENE,78,11.0,-999.0,0,-99.99,,,-99.99,,2013-03-08 23:22:00,
2013-03-08 17:32:00,39.0,-99.9,-100.00,ESE,104,10.0,-999.0,0,-99.99,,,-99.99,,2013-03-08 23:32:00,
2013-03-08 17:42:00,38.0,-99.9,-100.00,ENE,76,7.0,-999.0,0,-99.99,,,-99.99,,2013-03-08 23:42:00,
2013-03-08 17:53:00,38.0,-99.9,-100.00,East,89,8.0,-999.0,0,-99.99,,,-99.99,,2013-03-08 23:53:00,
2013-03-08 18:02:00,38.0,-99.9,-100.00,East,89,8.0,-999.0,0,-99.99,,,-99.99,,2013-03-09 00:02:00,
2013-03-08 18:12:00,38.0,-99.9,-100.00,NE,48,5.0,-999.0,0,-99.99,,,-99.99,,2013-03-09 00:12:00,
2013-03-08 18:22:00,37.0,-99.9,-100.00,ENE,57,5.0,-999.0,0,-99.99,,,-99.99,,2013-03-09 00:22:00,
2013-03-08 18:32:00,36.0,-99.9,-100.00,ENE,72,6.0,-999.0,0,-99.99,,,-99.99,,2013-03-09 00:32:00,
2013-03-08 18:42:00,38.0,-99.9,-100.00,East,98,9.0,-999.0,0,-99.99,,,-99.99,,2013-03-09 00:42:00,
2013-03-08 18:52:00,37.0,-99.9,-100.00,East,85,11.0,-999.0,0,-99.99,,,-99.99,,2013-03-09 00:52:00,
2013-03-08 19:02:00,37.0,-99.9,-100.00,East,85,5.0,-999.0,0,-99.99,,,-99.99,,2013-03-09 01:02:00,
2013-03-08 19:12:00,37.0,-99.9,-100.00,ESE,121,10.0,-999.0,0,-99.99,,,-99.99,,2013-03-09 01:12:00,
2013-03-08 19:22:00,36.0,-99.9,-100.00,ESE,107,7.0,-999.0,0,-99.99,,,-99.99,,2013-03-09 01:22:00,
2013-03-08 19:32:00,36.0,-99.9,-100.00,ESE,107,7.0,-999.0,0,-99.99,,,-99.99,,2013-03-09 01:32:00,
2013-03-08 19:42:00,36.0,-99.9,-100.00,ESE,107,7.0,-999.0,0,-99.99,,,-99.99,,2013-03-09 01:42:00,
2013-03-08 21:11:00,35.0,-99.9,-100.00,SE,142,23.0,-999.0,0,-99.99,,,-99.99,,2013-03-09 03:11:00,
2013-03-08 21:22:00,35.0,-99.9,-100.00,SE,142,23.0,-999.0,0,-99.99,,,-99.99,,2013-03-09 03:22:00,
2013-03-08 21:32:00,35.0,-99.9,-100.00,SE,139,15.0,-999.0,0,-99.99,,,-99.99,,2013-03-09 03:32:00,
2013-03-08 21:42:00,35.0,-99.9,-100.00,South,172,10.0,-999.0,0,-99.99,,,-99.99,,2013-03-09 03:42:00,
2013-03-08 21:52:00,35.0,-99.9,-100.00,SE,142,16.0,-999.0,0,-99.99,,,-99.99,,2013-03-09 03:52:00,
2013-03-08 22:01:00,35.0,-99.9,-100.00,South,175,13.0,-999.0,0,-99.99,,,-99.99,,2013-03-09 04:01:00,
2013-03-08 22:11:00,35.0,-99.9,-100.00,South,169,11.0,-999.0,0,-99.99,,,-99.99,,2013-03-09 04:11:00,
2013-03-08 22:22:00,35.0,-99.9,-100.00,South,179,17.0,-999.0,0,-99.99,,,-99.99,,2013-03-09 04:22:00,
2013-03-08 22:32:00,35.0,-99.9,-100.00,South,173,11.0,-999.0,0,-99.99,,,-99.99,,2013-03-09 04:32:00,
2013-03-08 22:42:00,35.0,-99.9,-100.00,South,171,10.0,-999.0,0,-99.99,,,-99.99,,2013-03-09 04:42:00,
2013-03-08 22:52:00,35.0,-99.9,-100.00,South,178,16.0,-999.0,0,-99.99,,,-99.99,,2013-03-09 04:52:00,
2013-03-08 23:03:00,35.0,-99.9,-100.00,South,178,16.0,-999.0,0,-99.99,,,-99.99,,2013-03-09 05:03:00,
2013-03-08 23:12:00,35.0,-99.9,-100.00,SSE,166,12.0,-999.0,0,-99.99,,,-99.99,,2013-03-09 05:12:00,
2013-03-08 23:22:00,35.0,-99.9,-100.00,South,181,9.0,-999.0,0,-99.99,,,-99.99,,2013-03-09 05:22:00,
2013-03-08 23:32:00,35.0,-99.9,-100.00,SSW,197,16.0,-999.0,0,-99.99,,,-99.99,,2013-03-09 05:32:00,
2013-03-08 23:43:00,35.0,-99.9,-100.00,SSW,197,11.0,-999.0,0,-99.99,,,-99.99,,2013-03-09 05:43:00,
2013-03-08 23:53:00,35.0,-99.9,-100.00,South,175,16.0,-999.0,0,-99.99,,,-99.99,,2013-03-09 05:53:00,